Miscellaneous Local Product
Issued by NWS North Platte, NE

Home | Current Version | Previous Version | Text Only | Print | Product List | Glossary On
Versions: 1 2 3 4 5 6 7 8 9 10 11 12 13 14 15 16 17 18 19 20 21 22 23 24 25 26 27 28 29 30 31 32 33 34 35 36 37 38 39 40 41 42 43 44 45 46 47 48 49 50
000
AXUS43 KLBF 280610
MISLBF


WESTERN AND NORTH CENTRAL NEBRASKA HOURLY WEATHER ROUNDUP
NATIONAL WEATHER SERVICE NORTH PLATTE NE
100 AM CDT THU AUG 28 2014

***STATIONS NOT REPORTING VARIABLES SUCH AS SKY/WEATHER OR
PRESSURE ARE PROVIDED BY THE NEBRASKA DEPARTMENT OF
ROADS...RAWS...AND APRS NETWORKS...AND ARE NOT UNDER
NATIONAL WEATHER SERVICE QUALITY CONTROL***

...OBSERVATIONS IN AND NEAR THE EASTERN PANHANDLE OF NEBRASKA...

CITY           SKY/WX    TMP DP  RH WIND       PRES   REMARKS
PINE RIDGE     LGT RAIN  64  63  96 W7        30.02F
CHADRON        CLOUDY    64  63  96 NW3       30.04S
ALLIANCE       CLOUDY    62  61  96 W7        30.05F
SIDNEY         LGT RAIN  63  61  93 S6        30.12R
WHITECLAY        N/A     64  62  96 W6          N/A
RUSHVILLE        N/A     66  64  94 W7          N/A
GORDON           N/A     69  69  99 S10         N/A
CRESCENT LAKE    N/A     62  60  92 CALM        N/A
LISCO            N/A     68  64  88 SW3         N/A
BIG SPRINGS      N/A     62  61  96 SE3         N/A
$$

...OBSERVATIONS IN NORTH CENTRAL NEBRASKA...

CITY           SKY/WX    TMP DP  RH WIND       PRES   REMARKS
VALENTINE      CLOUDY    68  67  96 E7        30.00F FOG
THEDFORD       CLOUDY    68  67  95 SE6       29.99F
AINSWORTH      CLOUDY    67  67 100 CALM      30.02S FOG
O`NEILL        HVY RAIN  69  69  98 E8        30.02F
ORD            LGT RAIN  70  69  97 SE6       30.00S FOG
BROKEN BOW     CLOUDY    69  67  93 SE7       30.00F
BROWNLEE         N/A     71  69  93 E7          N/A
SPRINGVIEW       N/A     68  66  94 NE3         N/A
ROSE             N/A     73  73  99 E8          N/A
NEWPORT          N/A     71  71  99 SE3         N/A
SARGENT          N/A     68  67  97 CALM        N/A
COMSTOCK         N/A     73  73 100 SE3         N/A
CHAMBERS         N/A     69  68  96 CALM        N/A
EWING            N/A     69  68  96 E5          N/A
$$

...OBSERVATIONS IN SOUTHWEST NEBRASKA AND FAR NORTHEAST COLORADO...

CITY           SKY/WX    TMP DP  RH WIND       PRES   REMARKS
WRAY             N/A    N/A N/A N/A NE3       30.05F
HOLYOKE        RAIN      63  59  88 S6        30.07R
IMPERIAL       LGT RAIN  63  59  87 N13G20    30.02F
OGALLALA       RAIN      59  59  97 CALM      30.06F
NORTH PLATTE   CLOUDY    68  66  93 CALM      30.00F THUNDER
MCCOOK         RAIN      64  61  90 W18G35    30.03R FOG
LEXINGTON      RAIN      69  67  96 SE13      30.00R
PAXTON           N/A     63  61  93 NW9         N/A
SUTHERLAND       N/A     60  58  92 W9          N/A
BRADY            N/A     67  65  93 CALM        N/A
GOTHENBURG       N/A     68  64  85 E3          N/A
CALLAWAY         N/A     67  66  98 SE6         N/A
$$

...SOME WEATHER OBSERVATIONS FROM AROUND THE REGION...

CITY           SKY/WX    TMP DP  RH WIND       PRES   REMARKS
DENVER         PTCLDY    56  52  86 W5        30.19R
LARAMIE        MOCLDY    47  43  86 SE3       30.27R
CHEYENNE       MOCLDY    54  46  74 W10       30.20S
SCOTTSBLUFF    CLOUDY    63  61  93 CALM      30.09S
RAPID CITY     CLOUDY    64  62  93 N6        30.05R
PIERRE         LGT RAIN  67  67 100 SE6       29.99F
WINNER         LGT RAIN  68  67  96 E10       30.00S
SIOUX FALLS    MOCLDY    69  65  86 SE10      30.06F
OMAHA          LGT RAIN  72  68  87 E9        30.04F
GRAND ISLAND   LGT RAIN  72  70  93 SE8       30.01S
KANSAS CITY    MOCLDY    76  71  85 E9        30.02F
WICHITA        MOCLDY    80  64  58 S13       29.98S
HAYS           CLOUDY    70  64  83 NE6       29.99S
LIBERAL        FAIR      72  63  73 S12       30.01S
GOODLAND       CLOUDY    68  66  93 SW5       30.03R
$$



USA.gov is the U.S. government's official web portal to all federal, state and local government web resources and services.